Location: Unspecified
(0.0000°N, 0.0000°E)
Time: 12:15:47
(UTC+00:00)

CAPRICORN - Pass Details

Date: 26 October 2019
Orbit: 325 x 40040 km, 64.5° (Epoch: 16 April)

Event Time Altitude Azimuth Distance (km) Brightness Sun altitude
Rises 10:17:24 0° 107° (ESE) 27,094 ? 65.2°
Reaches altitude 10° 11:05:08 10° 96° (E) 32,947 ? 74.3°
Maximum altitude 15:46:01 55° 28° (NNE) 39,748 ? 28.7°
Drops below altitude 10° 19:32:30 10° 4° (N) 18,088 ? -26.4°
Sets 19:48:25 0° 12° (NNE) 15,291 ? -30.3°
